This demonstration page uses our WeatherBlox Daily Observations layout. Learn more.

Left ArrowRight Arrow

44.31136, -96.79839

Hourly Observations for June 2, 2019

Temp ( °F °C ) Dew Point ( °F °C ) Humidity (%) Winds ( mph kmh ) Pressure ( in mb ) Visibility ( mi km ) Precip ( " mm )
12:56 am 00:56 Clear 54 12.2 43 6.1 67 67 Calm 30.04 1017 10 16 0.00 0.00
1:56 am 01:56 Clear 51 10.6 47 8.3 86 86 S 3 6 30.05 1018 10 16 0.00 0.00
2:56 am 02:56 Clear 50 10 46 7.8 86 86 Calm 30.05 1018 10 16 0.00 0.00
3:56 am 03:56 Clear 51 10.6 46 7.8 83 83 S 3 6 30.05 1018 10 16 0.00 0.00
4:56 am 04:56 Clear 50 10 45 7.2 83 83 Calm 30.06 1018 10 16 0.00 0.00
5:56 am 05:56 Sunny 50 10 45 7.2 83 83 Calm 30.06 1018 10 16 0.00 0.00
6:56 am 06:56 Sunny 49 9.4 46 7.8 90 90 Calm 30.09 1019 10 16 0.00 0.00
7:56 am 07:56 Sunny 56 13.3 48 8.9 75 75 undefined N/A 30.09 1019 10 16 0.00 0.00
8:56 am 08:56 Sunny 61 16.1 50 10 67 67 SW 3 6 30.09 1019 10 16 0.00 0.00
9:56 am 09:56 Sunny 65 18.3 46 7.8 51 51 WSW 10 17 30.09 1019 10 16 0.00 0.00
10:56 am 10:56 Sunny 67 19.4 48 8.9 51 51 W 9 15 30.09 1019 10 16 0.00 0.00
11:56 am 11:56 Sunny 69 20.6 49 9.4 49 49 W 8 13 30.09 1019 10 16 0.00 0.00
12:56 pm 12:56 Sunny 70 21.1 48 8.9 46 46 WSW 8 13 30.07 1018 10 16 0.00 0.00
1:56 pm 13:56 Sunny 71 21.7 49 9.4 46 46 W 9 15 30.06 1018 10 16 0.00 0.00
2:56 pm 14:56 Sunny 73 22.8 48 8.9 41 41 VRB 6 9 30.04 1017 10 16 0.00 0.00
3:56 pm 15:56 Sunny 73 22.8 46 7.8 38 38 VRB 5 7 30.03 1017 10 16 0.00 0.00
4:56 pm 16:56 Sunny 73 22.8 46 7.8 38 38 S 7 11 30.02 1017 10 16 0.00 0.00
5:56 pm 17:56 Sunny 73 22.8 48 8.9 41 41 S 6 9 30.01 1016 10 16 0.00 0.00
6:56 pm 18:56 Sunny 73 22.8 50 10 44 44 S 8 13 N/A 10 16 0.00 0.00
7:56 pm 19:56 Sunny 70 21.1 51 10.6 51 51 S 6 9 29.99 1016 10 16 0.00 0.00
8:56 pm 20:56 Cloudy 68 20 49 9.4 51 51 S 7 11 30.00 1016 10 16 0.00 0.00
9:56 pm 21:56 Clear 66 18.9 48 8.9 52 52 ESE 6 9 30.00 1016 10 16 0.00 0.00
10:56 pm 22:56 Clear 62 16.7 50 10 65 65 ESE 8 13 30.01 1016 10 16 0.00 0.00
11:56 pm 23:56 Mostly Cloudy 60 15.6 50 10 70 70 SE 8 13 30.02 1017 10 16 0.00 0.00

Powered by AerisWeather